User: anonymous
Location: Unspecified
(0.0000°N, 0.0000°E)
Time: 02:13:09
(UTC+02:00)
Language:

ISS - Orbit

View from above orbital plane
View from above orbital plane
View from above satellite
View from above satellite

Ground track
Ground track

The orbit data is extracted from the following two-line orbital elements,

1 25544U 98067A   14107.90654374  .00021842  00000-0  39098-3 0  1059
2 25544 051.6491 038.3170 0003752 298.0579 190.8057 15.49898117881973
Epoch (UTC): 17 April 2014 21:45:25
Eccentricity: 0.0003752
inclination: 51.6491°
perigee height: 414 km
apogee height: 419 km
right ascension of ascending node: 38.3170°
argument of perigee: 298.0579°
revolutions per day: 15.49898117
mean anomaly at epoch: 190.8057°
orbit number at epoch: 88197

The dashed part of the orbit path shows where the satellite is in the earth's shadow,  

DLR